Location: State Camp
(41.2367°N, 77.7828°W)
Time: 03:18:25
(UTC-04:00)

Daily predictions for brighter satellites

Satellite Brightness Start Highest point End
(mag) Time Altitude Azimuth Time Altitude Azimuth Time Altitude Azimuth
Cosmos 2369 Rocket 4.5 03:47:10 19° NE 03:47:10 19° NE 03:48:47 10° NNE
USA 215 4.3 04:06:33 10° NE 04:10:48 36° N 04:10:48 36° N
USA 229 DEB 4.1 04:25:37 53° SE 04:25:51 53° ESE 04:32:31 10° NE
USA 229 4.2 04:25:41 52° SE 04:25:57 53° ESE 04:32:36 10° NE
CZ-3 R/B 4.3 04:29:13 44° WSW 04:37:31 52° SSW 04:49:07 10° SE
BREEZE-M DEB (TANK) 4.2 04:40:07 33° E 04:40:07 33° E 04:44:55 10° ENE
Lacrosse 5 3.9 04:43:15 20° N 04:43:15 20° N 04:45:24 10° NNE
CZ-4C R/B 3.0 04:40:23 44° NNW 04:43:01 74° NE 04:51:01 10° SE
USA 267 3.4 04:36:51 10° SE 04:42:05 58° SSE 04:42:05 58° SSE
Nadezhda 1 Rocket 4.3 04:42:39 44° SSE 04:44:40 66° E 04:50:59 10° NNE
Cosmos 1943 Rocket 2.9 04:47:54 45° NNE 04:47:54 45° NNE 04:51:43 10° NNE
ADEOS II 2.6 04:48:28 10° NNE 04:52:28 53° NNE 04:52:28 53° NNE
Tiangong 2 4.2 05:00:31 15° E 05:00:31 15° E 05:01:09 10° ESE
Cosmos 2150 Rocket 3.9 05:06:05 83° NNE 05:06:05 83° NNE 05:11:13 10° NNE
Okean O Rocket 2.2 05:02:30 10° NNE 05:06:50 55° E 05:07:32 49° SE
Cosmos 1898 Rocket 4.3 05:09:50 38° NNW 05:09:50 38° NNW 05:13:14 10° N
Cosmos 1937 Rocket 3.5 05:10:36 67° NNW 05:10:36 67° NNW 05:15:22 10° NNE
Cosmos 489 Rocket 4.5 05:14:20 57° WNW 05:14:20 57° WNW 05:20:23 10° NNE
Cosmos 2154 Rocket 4.0 05:10:16 10° N 05:16:38 85° E 05:22:57 10° S
Cosmos 1758 Rocket 3.7 05:18:13 48° SSE 05:19:23 74° E 05:23:54 10° NNE
Cosmos 44 Rocket 3.8 05:20:56 44° S 05:20:56 44° S 05:24:29 10° SSE
Cosmos-2242 4.3 05:17:08 10° N 05:21:12 40° ENE 05:25:16 10° SSE
Cosmos 2369 Rocket 3.6 05:28:59 23° NNW 05:28:59 23° NNW 05:32:14 10° N
Meteor 2-19 Rocket 4.4 05:24:33 10° NNW 05:30:36 58° W 05:36:36 10° S
Cosmos 990 Rocket 4.1 05:32:37 51° WNW 05:32:37 51° WNW 05:37:39 10° N
ERBS 4.3 05:32:06 21° N 05:33:09 24° NE 05:36:03 10° E
Cosmos 1340 Rocket 4.2 05:42:35 26° NNW 05:42:35 26° NNW 05:44:41 10° N
Cosmos 2298 Rocket 4.4 05:40:54 40° WNW 05:41:01 40° WNW 05:46:03 10° N
Meteor 1-31 Rocket 3.0 05:37:20 10° NNE 05:41:08 67° E 05:44:55 10° S
RUBIN 8/PSLV 4.4 05:38:06 10° N 05:42:23 69° WNW 05:44:10 34° SSW
Milstar 3 4.0 05:43:13 21° SW 05:45:57 27° S 05:52:17 10° SE
Cosmos 1707 2.9 05:51:03 49° W 05:51:03 49° W 05:54:54 10° N
Cosmos 962 Rocket 4.3 05:48:50 10° NNW 05:54:57 68° W 06:00:59 10° S
Cosmos 2219 3.3 05:49:26 10° NNW 05:55:09 80° ENE 06:00:47 10° SSE
APEX 3.6 05:57:22 40° W 05:58:00 44° WSW 06:02:24 10° S
SJ-6F 4.4 05:54:25 10° NNE 05:58:31 85° E 06:02:35 10° SSW
Meteor 2-5 Rocket 3.7 05:54:31 10° SSW 06:00:26 77° W 06:06:18 10° N
Cosmos 1378 3.6 06:01:44 37° WNW 06:01:44 37° WNW 06:05:14 10° N
Meteor 2-14 Rocket 4.5 05:56:26 10° N 06:02:32 84° E 06:08:36 10° S
PAYLOAD B 4.5 06:00:19 10° N 06:05:32 45° WNW 06:10:46 10° SW
Cosmos 2341 Rocket 4.1 06:00:35 10° NNW 06:06:50 57° W 06:13:02 10° SSW
Cosmos 2297 Rocket 3.9 06:01:59 10° N 06:07:03 32° ENE 06:12:03 10° ESE
Cosmos 158 Rocket 4.0 06:02:09 10° NNW 06:07:34 82° WSW 06:12:57 10° SSE
GPS 2-04 Rocket1 4.1 06:07:14 20° SW 06:08:07 21° SSW 06:10:59 10° SSE
Cosmos 2181 Rocket 3.9 06:03:40 10° SSW 06:09:51 64° W 06:16:00 10° N
Cosmos 1953 Rocket 4.2 06:09:02 24° WSW 06:10:36 31° WNW 06:14:30 10° NNW
USA 81 4.0 06:07:12 10° S 06:12:28 76° W 06:17:45 10° N
Cosmos 1656 Rocket 4.2 06:09:35 20° WSW 06:12:50 37° WNW 06:18:05 10° N
EO 1 Del DPAF 3.3 06:09:33 10° SSE 06:13:22 82° ENE 06:17:13 10° N
SJ 16-02 1.2 06:09:18 10° SSW 06:13:42 86° WNW 06:18:08 10° NNE
NOSS 3-1 (C) 3.4 06:10:26 14° SW 06:15:19 60° NW 06:21:44 10° NNE
OAO 2 Rocket 4.2 06:12:44 20° WSW 06:15:30 35° SSW 06:19:59 10° SE
USA 229 DEB 4.3 06:13:07 20° W 06:17:04 36° NW 06:23:24 10° NNE
USA 229 4.3 06:13:10 20° W 06:17:08 36° NW 06:23:29 10° NNE
In-Cosmos 22 4.3 06:13:32 10° S 06:19:08 83° E 06:24:52 10° NNE
Meteor 1-16 Rocket 4.4 06:14:22 10° NNW 06:19:51 52° W 06:25:27 10° SSW
NOSS 3-1 (A) 3.3 06:15:03 10° SW 06:20:47 75° NW 06:27:17 10° NNE
CZ-4B R/B 4.5 06:19:27 10° N 06:23:40 42° WNW 06:27:54 10° SW
SKYMED 2 3.6 06:21:17 10° SSE 06:25:37 84° E 06:29:59 10° N
Lacrosse 5 4.0 06:23:13 10° NW 06:25:42 13° N 06:28:12 10° NNE
SL-08 R/B 4.5 06:19:41 10° N 06:25:53 89° W 06:32:09 10° S
Cosmos 1959 Rocket 4.5 06:21:24 10° N 06:27:42 74° W 06:33:54 10° S
MINOTAUR R/B 4.4 06:25:51 10° NNW 06:28:31 72° ENE 06:31:08 10° SSE
CZ-4B R/B 3.8 06:23:54 10° N 06:28:43 33° WNW 06:33:37 10° SW
Landsat 4 4.4 06:25:44 10° SSW 06:29:07 31° W 06:32:31 10° NW
Cosmos 1356 Rocket 4.2 06:26:01 10° SW 06:29:52 32° WNW 06:33:46 10° N
Cosmos 1943 Rocket 3.9 06:29:28 12° WNW 06:30:49 13° NW 06:33:29 10° NNW
CZ-4C R/B 3.9 06:25:41 11° WNW 06:31:14 26° WSW 06:37:32 10° SSW
ADEOS II 3.8 06:30:26 10° NNW 06:32:43 13° WNW 06:33:24 13° WNW
Tiangong 2 2.4 06:32:51 17° WSW 06:34:37 27° SSW 06:37:23 10° SSE
Cosmos 1269 Rocket 4.0 06:30:20 10° NNW 06:35:36 65° WSW 06:40:50 10° S
Cosmos 1356 3.6 06:33:17 10° SSW 06:36:40 50° WNW 06:40:05 10° N
USA 116 4.3 06:34:27 10° SSW 06:37:37 31° W 06:41:07 10° NNW
Meteor 1-28 Rocket 3.9 06:38:13 10° SSW 06:41:40 32° W 06:45:08 10° NNW
Okean O Rocket 3.3 06:40:18 10° NNW 06:42:44 15° WNW 06:44:59 11° W
ATLAS 3B R/B 4.5 06:39:30 10° NNW 06:44:55 25° NE 06:50:09 10° E
IDEFIX/ARIANE 42P 2.7 06:40:38 10° NNE 06:45:55 81° ESE 06:51:08 10° S
Thor Agena Rocket 4.2 06:40:58 10° SSE 06:46:10 63° ENE 06:51:21 10° N
Cosmos 372 Rocket 4.5 06:46:07 10° SW 06:50:58 39° WNW 06:55:53 10° N
Okean-O 3.1 06:52:31 10° N 06:56:40 40° WNW 07:00:47 10° SW
Cosmos 2278 3.9 06:53:12 10° SSW 06:58:50 81° ESE 07:04:30 10° NNE
PAYLOAD A 3.8 06:54:20 10° N 06:59:00 68° WNW 07:03:46 10° SSW
Cosmos 2366 rocket 4.3 06:54:55 10° NNW 07:00:42 44° W 07:06:29 10° SSW
Cosmos 1125 Rocket 4.3 06:56:38 10° WSW 07:01:12 29° WNW 07:05:49 10° N
NOAA 6 4.4 06:57:22 10° N 07:02:13 42° WNW 07:07:02 10° SW
